This demonstration page uses our WeatherBlox Daily Observations layout. Learn more.

Hourly Observations for December 19, 2015

Temp ( °F °C ) Dew Point ( °F °C ) Humidity (%) Winds ( mph kmh ) Pressure ( in mb ) Visibility ( mi km ) Precip ( " mm )
12:15 am 00:15 Clear 21 -6.2 15 -9.6 77 77 SSE 6 9 30.33 1027 10 16.0934 0 0
12:35 am 00:35 Clear 21 -6.3 15 -9.6 78 78 SSE 5 7 30.33 1027 10 16.0934 0 0
12:55 am 00:55 Clear 21 -6.2 14 -9.8 76 76 SSE 3 6 30.33 1027 10 16.0934 0 0
1:15 am 01:15 Clear 21 -6.3 14 -9.9 76 76 SSE 6 9 30.33 1027 10 16.0934 0 0
1:35 am 01:35 Clear 22 -5.6 15 -9.2 76 76 SSE 7 11 30.3 1026 10 16.0934 0 0
1:55 am 01:55 Clear 23 -4.9 16 -9 73 73 SSE 7 11 30.27 1025 10 16.0934 0 0
2:15 am 02:15 Clear 23 -5 16 -9 74 74 SSE 9 15 30.27 1025 10 16.0934 0 0
2:35 am 02:35 Clear 22 -5.5 16 -9 77 77 SSE 7 11 30.27 1025 10 16.0934 0 0
2:55 am 02:55 Clear 23 -5 17 -8.6 76 76 SSE 7 11 30.27 1025 10 16.0934 0 0
3:15 am 03:15 Clear 23 -5.1 17 -8.4 78 78 S 8 13 30.27 1025 10 16.0934 0 0
3:35 am 03:35 Clear 23 -5.1 17 -8.4 78 78 S 7 11 30.27 1025 10 16.0934 0 0
3:55 am 03:55 Clear 22 -5.5 17 -8.5 80 80 SSE 6 9 30.27 1025 10 16.0934 0 0
4:15 am 04:15 Clear 22 -5.5 17 -8.3 81 81 S 5 7 30.27 1025 10 16.0934 0 0
4:35 am 04:35 Clear 22 -5.6 17 -8.2 82 82 Calm 30.3 1026 10 16.0934 0 0
4:55 am 04:55 Clear 22 -5.6 18 -7.9 84 84 S 3 6 30.3 1026 10 16.0934 0 0
5:15 am 05:15 Clear 22 -5.4 19 -7.3 87 87 S 7 11 30.27 1025 10 16.0934 0 0
5:35 am 05:35 Clear 23 -4.9 20 -6.7 87 87 S 6 9 30.27 1025 10 16.0934 0 0
5:55 am 05:55 Clear 23 -5 20 -6.8 87 87 SSE 6 9 30.27 1025 10 16.0934 0 0
6:15 am 06:15 Clear 22 -5.6 19 -7.1 89 89 S 3 6 30.3 1026 10 16.0934 0 0
6:35 am 06:35 Clear 22 -5.4 20 -6.8 90 90 S 6 9 30.27 1025 10 16.0934 0 0
6:55 am 06:55 Clear 23 -4.9 21 -6.2 91 91 S 8 13 30.27 1025 10 16.0934 0 0
7:15 am 07:15 Clear 22 -5.4 20 -6.7 91 91 S 3 6 30.27 1025 10 16.0934 0 0
7:35 am 07:35 Clear 22 -5.5 20 -6.7 91 91 S 6 9 30.27 1025 10 16.0934 0 0
7:55 am 07:55 Clear 23 -5.1 21 -6.2 92 92 S 7 11 30.27 1025 10 16.0934 0 0
8:15 am 08:15 Sunny 22 -5.5 20 -6.5 93 93 SSE 7 11 30.27 1025 10 16.0934 0 0
8:35 am 08:35 Sunny 24 -4.2 22 -5.3 92 92 S 7 11 30.27 1025 10 16.0934 0 0
8:55 am 08:55 Sunny 27 -2.7 25 -4.1 90 90 S 5 7 30.27 1025 10 16.0934 0 0
9:15 am 09:15 Sunny 30 -1.3 26 -3.1 88 88 S 7 11 30.24 1024 10 16.0934 0 0
9:35 am 09:35 Sunny 31 -0.5 27 -2.6 86 86 S 5 7 30.24 1024 10 16.0934 0 0
9:55 am 09:55 Sunny 33 0.5 29 -1.8 85 85 S 5 7 30.21 1023 10 16.0934 0 0
10:15 am 10:15 Sunny 34 1.1 29 -1.4 84 84 S 8 13 30.21 1023 10 16.0934 0 0
10:35 am 10:35 Sunny 35 1.9 29 -1.5 78 78 S 12 19 30.21 1023 10 16.0934 0 0
10:55 am 10:55 Sunny 37 2.5 30 -1.2 77 77 S 10 17 30.18 1022 10 16.0934 0 0
11:15 am 11:15 Sunny 37 2.9 29 -1.5 73 73 S 13 20 30.18 1022 10 16.0934 0 0
11:35 am 11:35 Sunny 38 3.6 30 -0.9 73 73 S 9 15 30.15 1021 10 16.0934 0 0
11:55 am 11:55 Sunny 40 4.6 30 -1.2 66 66 S 15 24 30.15 1021 10 16.0934 0 0
12:15 pm 12:15 Sunny 41 4.8 31 -0.7 68 68 S 10 17 30.12 1020 10 16.0934 0 0
12:35 pm 12:35 Sunny 43 5.9 30 -0.9 62 62 S 12 19 30.12 1020 10 16.0934 0 0
12:55 pm 12:55 Sunny 44 6.6 31 -0.4 61 61 S 10 17 30.09 1019 10 16.0934 0 0
1:15 pm 13:15 Sunny 45 7.3 30 -1 56 56 S 10 17 30.06 1018 10 16.0934 0 0
1:35 pm 13:35 Sunny 46 8 30 -1.1 53 53 S 10 17 30.06 1018 10 16.0934 0 0
1:55 pm 13:55 Sunny 47 8.3 30 -1.3 51 51 S 9 15 30.03 1017 10 16.0934 0 0
2:15 pm 14:15 Sunny 47 8.6 31 -0.8 52 52 S 9 15 30.03 1017 10 16.0934 0 0
2:35 pm 14:35 Sunny 47 8.6 30 -1.2 51 51 S 12 19 30.03 1017 10 16.0934 0 0
2:55 pm 14:55 Sunny 46 8 30 -1.2 53 53 S 13 20 30 1016 10 16.0934 0 0
3:15 pm 15:15 Sunny 46 7.5 31 -0.5 57 57 S 10 17 30 1016 10 16.0934 0 0
3:35 pm 15:35 Sunny 46 7.5 31 -0.3 58 58 S 12 19 30 1016 10 16.0934 0 0
3:55 pm 15:55 Sunny 44 6.9 31 -0.5 60 60 SSE 10 17 30 1016 10 16.0934 0 0
4:15 pm 16:15 Sunny 44 6.6 32 -0.2 62 62 S 13 20 29.97 1015 10 16.0934 0 0
4:35 pm 16:35 Sunny 44 6.5 32 -0.2 63 63 S 13 20 29.97 1015 10 16.0934 0 0
4:55 pm 16:55 Sunny 42 5.7 31 -0.4 65 65 SSE 9 15 30 1016 10 16.0934 0 0
5:15 pm 17:15 Clear 40 4.5 31 -0.6 70 70 S 8 13 30 1016 10 16.0934 0 0
5:35 pm 17:35 Clear 40 4.2 31 -0.8 70 70 S 9 15 30 1016 10 16.0934 0 0
5:55 pm 17:55 Clear 38 3.2 31 -0.7 76 76 S 10 17 30 1016 10 16.0934 0 0
6:15 pm 18:15 Clear 38 3.2 31 -0.6 76 76 S 13 20 30 1016 10 16.0934 0 0
6:35 pm 18:35 Clear 37 3 31 -0.5 78 78 S 14 22 30 1016 10 16.0934 0 0
6:55 pm 18:55 Clear 38 3.5 31 -0.5 75 75 S 15 24 30 1016 10 16.0934 0 0
7:15 pm 19:15 Clear 38 3.5 31 -0.5 75 75 S 17 28 30 1016 10 16.0934 0 0
7:35 pm 19:35 Clear 38 3.2 31 -0.5 77 77 S 14 22 30 1016 10 16.0934 0 0
7:55 pm 19:55 Clear 38 3.2 31 -0.5 77 77 S 16 26 30 1016 10 16.0934 0 0
8:15 pm 20:15 Clear 37 3 31 -0.5 78 78 S 13 20 30 1016 10 16.0934 0 0
8:35 pm 20:35 Clear 37 2.5 31 -0.5 81 81 S 12 19 30 1016 10 16.0934 0 0
8:55 pm 20:55 Clear 36 2 31 -0.8 82 82 S 10 17 29.97 1015 10 16.0934 0 0
9:15 pm 21:15 Clear 34 1.1 30 -1 86 86 S 7 11 30 1016 10 16.0934 0 0
9:35 pm 21:35 Clear 33 0.7 30 -1 89 89 S 5 7 30 1016 10 16.0934 0 0
9:55 pm 21:55 Clear 34 1.3 31 -0.5 88 88 S 8 13 30 1016 10 16.0934 0 0
10:15 pm 22:15 Clear 34 1.3 31 -0.6 87 87 S 7 11 29.97 1015 10 16.0934 0 0
10:35 pm 22:35 Clear 34 1.1 31 -0.7 88 88 Calm 29.97 1015 10 16.0934 0 0
10:55 pm 22:55 Clear 33 0.4 30 -1 90 90 ESE 3 6 29.97 1015 10 16.0934 0 0
11:15 pm 23:15 Clear 33 0.6 31 -0.6 92 92 SSE 6 9 29.94 1014 10 16.0934 0 0
11:35 pm 23:35 Clear 34 1 31 -0.3 91 91 SE 6 9 29.94 1014 10 16.0934 0 0
11:55 pm 23:55 Clear 35 1.4 32 0 91 91 SSE 5 7 29.94 1014 10 16.0934 0 0

Powered by AerisWeather